Time,TemperatureF,DewpointF,PressureIn,WindDirection,WindDirectionDegrees,WindSpeedMPH,WindSpeedGustMPH,Humidity,HourlyPrecipIn,Conditions,Clouds,dailyrainin,SolarRadiationWatts/m^2,SoftwareType,DateUTC
2013-09-15 00:04:00,55.1,53.4,29.95,SSW,213,3.5,3.5,94,0.02,CLR,BKN,0.12,0.0,WeatherDisplay:10.37,2013-09-15 05:04:00,
2013-09-15 00:10:00,55.1,53.4,29.95,SSW,213,3.5,3.5,94,0.01,CLR,BKN,0.12,0.0,WeatherDisplay:10.37,2013-09-15 05:10:00,
2013-09-15 00:15:00,55.1,53.4,29.95,SSW,213,3.5,3.5,94,0.01,CLR,BKN,0.12,0.0,WeatherDisplay:10.37,2013-09-15 05:15:00,
2013-09-15 00:20:00,55.1,53.4,29.95,SSW,212,4.0,4.0,94,0.01,CLR,BKN,0.12,0.0,WeatherDisplay:10.37,2013-09-15 05:20:00,
2013-09-15 00:25:00,55.1,53.4,29.94,SSW,213,3.5,3.5,94,0.01,CLR,BKN,0.12,0.0,WeatherDisplay:10.37,2013-09-15 05:25:00,
2013-09-15 00:30:00,55.0,53.3,29.95,SSW,213,3.5,3.5,94,0.01,CLR,BKN,0.12,0.0,WeatherDisplay:10.37,2013-09-15 05:30:00,
2013-09-15 00:35:00,55.0,53.3,29.95,SSW,212,4.0,4.0,94,0.00,CLR,BKN,0.12,0.0,WeatherDisplay:10.37,2013-09-15 05:35:00,
2013-09-15 00:40:00,55.0,53.3,29.95,SSW,213,3.5,3.5,94,0.00,CLR,BKN,0.12,0.0,WeatherDisplay:10.37,2013-09-15 05:40:00,
2013-09-15 00:46:00,55.0,53.3,29.95,SSW,213,4.0,4.0,94,0.00,CLR,BKN,0.12,0.0,WeatherDisplay:10.37,2013-09-15 05:46:00,
2013-09-15 00:51:00,55.0,53.3,29.95,SSW,212,3.5,3.5,94,0.00,CLR,BKN,0.12,0.0,WeatherDisplay:10.37,2013-09-15 05:51:00,
2013-09-15 00:56:00,55.0,53.3,29.95,SSW,212,3.5,3.5,94,0.00,CLR,BKN,0.12,0.0,WeatherDisplay:10.37,2013-09-15 05:56:00,
2013-09-15 01:01:00,55.0,53.3,29.94,SSW,213,4.6,4.6,94,0.00,CLR,BKN,0.12,0.0,WeatherDisplay:10.37,2013-09-15 06:01:00,
2013-09-15 01:06:00,55.0,53.3,29.94,SSW,212,5.8,5.8,94,0.00,CLR,BKN,0.12,0.0,WeatherDisplay:10.37,2013-09-15 06:06:00,
2013-09-15 01:11:00,54.8,53.1,29.94,SSW,212,4.0,4.0,94,0.00,CLR,BKN,0.12,0.0,WeatherDisplay:10.37,2013-09-15 06:11:00,
2013-09-15 01:16:00,54.8,53.4,29.94,SSW,212,4.6,4.6,95,0.01,RA,BKN,0.13,0.0,WeatherDisplay:10.37,2013-09-15 06:16:00,
2013-09-15 01:21:00,54.8,53.4,29.94,SSW,212,4.6,4.6,95,0.01,RA,BKN,0.13,0.0,WeatherDisplay:10.37,2013-09-15 06:21:00,
2013-09-15 01:27:00,54.8,53.4,29.94,SSW,209,6.9,6.9,95,0.01,CLR,BKN,0.13,0.0,WeatherDisplay:10.37,2013-09-15 06:27:00,
2013-09-15 01:32:00,54.8,53.4,29.94,SSW,206,5.0,5.0,95,0.01,CLR,BKN,0.13,0.0,WeatherDisplay:10.37,2013-09-15 06:32:00,
2013-09-15 01:37:00,54.8,53.4,29.94,SSW,205,4.6,4.6,95,0.01,CLR,BKN,0.13,0.0,WeatherDisplay:10.37,2013-09-15 06:37:00,
2013-09-15 01:42:00,54.8,53.4,29.94,SSW,201,6.9,6.9,95,0.01,CLR,BKN,0.13,0.0,WeatherDisplay:10.37,2013-09-15 06:42:00,
2013-09-15 01:47:00,54.8,53.4,29.94,SSW,201,5.8,5.8,95,0.01,CLR,BKN,0.13,0.0,WeatherDisplay:10.37,2013-09-15 06:47:00,
2013-09-15 01:52:00,54.8,53.4,29.94,SSW,201,4.6,4.6,95,0.01,CLR,BKN,0.13,0.0,WeatherDisplay:10.37,2013-09-15 06:52:00,
2013-09-15 01:57:00,54.8,53.4,29.94,SSW,205,5.8,5.8,95,0.02,RA,BKN,0.14,0.0,WeatherDisplay:10.37,2013-09-15 06:57:00,
2013-09-15 02:03:00,54.8,53.4,29.94,SSW,199,5.8,5.8,95,0.02,RA,BKN,0.14,0.0,WeatherDisplay:10.37,2013-09-15 07:03:00,
2013-09-15 02:08:00,54.8,53.4,29.94,SSW,200,5.0,5.2,95,0.02,CLR,BKN,0.14,0.0,WeatherDisplay:10.37,2013-09-15 07:08:00,
2013-09-15 02:13:00,54.7,53.3,29.94,SSW,198,6.9,6.9,95,0.02,CLR,BKN,0.14,0.0,WeatherDisplay:10.37,2013-09-15 07:13:00,
2013-09-15 02:18:00,54.7,53.3,29.94,SSW,198,5.8,5.8,95,0.01,CLR,BKN,0.14,0.0,WeatherDisplay:10.37,2013-09-15 07:18:00,
2013-09-15 02:23:00,54.7,53.3,29.94,SSW,198,4.0,4.0,95,0.01,CLR,BKN,0.14,0.0,WeatherDisplay:10.37,2013-09-15 07:23:00,
2013-09-15 02:28:00,54.7,53.3,29.94,SSW,196,5.8,5.8,95,0.01,CLR,BKN,0.14,0.0,WeatherDisplay:10.37,2013-09-15 07:28:00,
2013-09-15 02:33:00,54.7,53.3,29.93,SSW,196,5.8,5.8,95,0.01,CLR,BKN,0.14,0.0,WeatherDisplay:10.37,2013-09-15 07:33:00,
2013-09-15 02:38:00,54.7,53.3,29.94,SSW,196,4.0,4.0,95,0.01,CLR,BKN,0.14,0.0,WeatherDisplay:10.37,2013-09-15 07:38:00,
2013-09-15 02:44:00,54.5,53.1,29.94,SSW,196,6.9,6.9,95,0.01,CLR,BKN,0.14,0.0,WeatherDisplay:10.37,2013-09-15 07:44:00,
2013-09-15 02:49:00,54.5,53.1,29.94,SSW,196,5.0,5.0,95,0.01,CLR,BKN,0.14,0.0,WeatherDisplay:10.37,2013-09-15 07:49:00,
2013-09-15 02:54:00,54.5,53.1,29.94,SSW,196,2.3,2.3,95,0.01,CLR,BKN,0.14,0.0,WeatherDisplay:10.37,2013-09-15 07:54:00,
2013-09-15 02:59:00,54.5,53.1,29.94,SSW,197,3.5,3.5,95,0.00,CLR,BKN,0.14,0.0,WeatherDisplay:10.37,2013-09-15 07:59:00,
2013-09-15 03:04:00,54.5,53.1,29.94,SSW,197,5.8,5.8,95,0.00,CLR,BKN,0.14,0.0,WeatherDisplay:10.37,2013-09-15 08:04:00,
2013-09-15 03:09:00,54.5,53.1,29.94,SSW,197,3.5,3.5,95,0.00,CLR,BKN,0.14,0.0,WeatherDisplay:10.37,2013-09-15 08:09:00,
2013-09-15 03:14:00,54.5,53.1,29.94,SSW,197,3.5,3.5,95,0.00,CLR,BKN,0.14,0.0,WeatherDisplay:10.37,2013-09-15 08:14:00,
2013-09-15 03:20:00,54.4,53.0,29.94,SSW,197,5.0,5.0,95,0.00,CLR,BKN,0.14,0.0,WeatherDisplay:10.37,2013-09-15 08:20:00,
2013-09-15 03:25:00,54.4,53.0,29.94,SSW,197,3.0,6.0,95,0.00,CLR,BKN,0.14,0.0,WeatherDisplay:10.37,2013-09-15 08:25:00,
2013-09-15 03:30:00,54.4,53.0,29.93,SSW,197,2.3,2.3,95,0.00,CLR,BKN,0.14,0.0,WeatherDisplay:10.37,2013-09-15 08:30:00,
2013-09-15 03:35:00,54.4,53.0,29.94,SSW,197,2.0,3.0,95,0.00,CLR,BKN,0.14,0.0,WeatherDisplay:10.37,2013-09-15 08:35:00,
2013-09-15 03:40:00,54.4,53.0,29.94,SSW,197,3.5,3.5,95,0.01,RA,BKN,0.15,0.0,WeatherDisplay:10.37,2013-09-15 08:40:00,
2013-09-15 03:45:00,54.2,52.8,29.94,SSW,197,3.5,3.5,95,0.01,RA,BKN,0.15,0.0,WeatherDisplay:10.37,2013-09-15 08:45:00,
2013-09-15 03:50:00,54.2,52.8,29.94,SSW,197,2.3,2.3,95,0.01,CLR,BKN,0.15,0.0,WeatherDisplay:10.37,2013-09-15 08:50:00,
2013-09-15 03:55:00,54.2,52.8,29.94,SSW,197,3.5,3.5,95,0.01,CLR,BKN,0.15,0.0,WeatherDisplay:10.37,2013-09-15 08:55:00,
2013-09-15 04:00:00,54.2,52.8,29.94,SSW,197,3.5,3.5,95,0.01,CLR,BKN,0.15,0.0,WeatherDisplay:10.37,2013-09-15 09:00:00,
2013-09-15 04:05:00,54.1,52.7,29.94,SSW,197,4.0,4.0,95,0.01,CLR,BKN,0.15,0.0,WeatherDisplay:10.37,2013-09-15 09:05:00,
2013-09-15 04:10:00,54.1,52.7,29.94,SSW,197,3.5,3.5,95,0.01,CLR,BKN,0.16,0.0,WeatherDisplay:10.37,2013-09-15 09:10:00,
2013-09-15 04:16:00,54.1,52.7,29.94,SSW,197,2.3,2.3,95,0.02,RA,BKN,0.16,0.0,WeatherDisplay:10.37,2013-09-15 09:16:00,
2013-09-15 04:21:00,54.1,52.7,29.94,SSW,197,0.0,0.0,95,0.02,CLR,BKN,0.16,0.0,WeatherDisplay:10.37,2013-09-15 09:21:00,
2013-09-15 04:26:00,53.9,52.5,29.95,SSW,197,0.0,0.0,95,0.02,CLR,BKN,0.16,0.0,WeatherDisplay:10.37,2013-09-15 09:26:00,
2013-09-15 04:31:00,53.9,52.5,29.95,SSW,197,0.0,0.0,95,0.02,CLR,BKN,0.16,0.0,WeatherDisplay:10.37,2013-09-15 09:31:00,
2013-09-15 04:36:00,53.9,52.5,29.95,SSW,197,1.0,1.0,95,0.02,CLR,BKN,0.16,0.0,WeatherDisplay:10.37,2013-09-15 09:36:00,
2013-09-15 04:41:00,53.9,52.5,29.95,SSW,197,2.3,2.3,95,0.01,CLR,BKN,0.16,0.0,WeatherDisplay:10.37,2013-09-15 09:41:00,
2013-09-15 04:46:00,53.9,52.5,29.95,SSW,197,3.5,3.5,95,0.01,CLR,BKN,0.16,0.0,WeatherDisplay:10.37,2013-09-15 09:46:00,
2013-09-15 04:51:00,53.9,52.5,29.95,SSW,197,3.5,3.5,95,0.01,CLR,BKN,0.16,0.0,WeatherDisplay:10.37,2013-09-15 09:51:00,
2013-09-15 04:57:00,53.8,52.4,29.95,SSW,197,3.0,3.0,95,0.01,CLR,BKN,0.16,0.0,WeatherDisplay:10.37,2013-09-15 09:57:00,
2013-09-15 05:02:00,53.8,52.4,29.95,SSW,197,3.5,3.5,95,0.02,RA,BKN,0.17,0.0,WeatherDisplay:10.37,2013-09-15 10:02:00,
2013-09-15 05:07:00,53.8,52.4,29.95,SSW,197,2.3,2.3,95,0.02,RA,BKN,0.17,0.0,WeatherDisplay:10.37,2013-09-15 10:07:00,
2013-09-15 05:12:00,53.8,52.4,29.95,SSW,197,2.3,2.3,95,0.01,CLR,BKN,0.17,0.0,WeatherDisplay:10.37,2013-09-15 10:12:00,
2013-09-15 05:17:00,53.8,52.4,29.95,SSW,197,0.0,0.0,95,0.01,CLR,BKN,0.17,0.0,WeatherDisplay:10.37,2013-09-15 10:17:00,
2013-09-15 05:22:00,53.8,52.4,29.96,SSW,197,0.0,0.0,95,0.01,CLR,BKN,0.17,0.0,WeatherDisplay:10.37,2013-09-15 10:22:00,
2013-09-15 05:27:00,53.8,52.4,29.96,SSW,197,0.0,0.0,95,0.01,CLR,BKN,0.17,0.0,WeatherDisplay:10.37,2013-09-15 10:27:00,
2013-09-15 05:33:00,53.6,52.2,29.96,SSW,197,0.0,0.1,95,0.01,CLR,BKN,0.17,0.0,WeatherDisplay:10.37,2013-09-15 10:33:00,
2013-09-15 05:38:00,53.6,52.2,29.96,SSW,197,0.0,0.0,95,0.02,RA,BKN,0.18,0.0,WeatherDisplay:10.37,2013-09-15 10:38:00,
2013-09-15 05:43:00,53.6,52.5,29.96,SSW,197,0.0,0.0,96,0.02,RA,BKN,0.18,0.0,WeatherDisplay:10.37,2013-09-15 10:43:00,
2013-09-15 05:48:00,53.6,52.5,29.96,SSW,197,1.2,0.0,96,0.02,CLR,BKN,0.18,0.0,WeatherDisplay:10.37,2013-09-15 10:48:00,
2013-09-15 05:53:00,53.6,52.5,29.96,SSW,197,0.0,0.0,96,0.02,CLR,BKN,0.18,0.0,WeatherDisplay:10.37,2013-09-15 10:53:00,
2013-09-15 05:58:00,53.6,52.5,29.96,SSW,197,0.0,0.0,96,0.02,CLR,BKN,0.18,0.0,WeatherDisplay:10.37,2013-09-15 10:58:00,
2013-09-15 06:03:00,53.6,52.5,29.96,SSW,197,1.2,1.2,96,0.01,CLR,BKN,0.18,0.0,WeatherDisplay:10.37,2013-09-15 11:03:00,
2013-09-15 06:08:00,53.6,52.5,29.96,SSW,197,2.3,2.3,96,0.02,RA,BKN,0.19,0.0,WeatherDisplay:10.37,2013-09-15 11:08:00,
2013-09-15 06:14:00,53.6,52.5,29.97,SSW,197,0.0,0.0,96,0.02,RA,BKN,0.19,0.0,WeatherDisplay:10.37,2013-09-15 11:14:00,
2013-09-15 06:19:00,53.6,52.5,29.97,SSW,197,0.0,0.0,96,0.02,CLR,BKN,0.19,0.0,WeatherDisplay:10.37,2013-09-15 11:19:00,
2013-09-15 06:24:00,53.5,52.4,29.96,SSW,197,2.3,2.3,96,0.02,CLR,BKN,0.19,0.0,WeatherDisplay:10.37,2013-09-15 11:24:00,
2013-09-15 06:29:00,53.5,52.4,29.97,SSW,197,1.2,1.2,96,0.02,CLR,BKN,0.19,0.0,WeatherDisplay:10.37,2013-09-15 11:29:00,
2013-09-15 06:34:00,53.5,52.4,29.97,SSW,197,1.0,1.0,96,0.02,CLR,BKN,0.19,0.0,WeatherDisplay:10.37,2013-09-15 11:34:00,
2013-09-15 06:39:00,53.5,52.4,29.97,SSW,197,1.2,1.2,96,0.01,CLR,BKN,0.19,0.0,WeatherDisplay:10.37,2013-09-15 11:39:00,
2013-09-15 06:44:00,53.5,52.4,29.97,SSW,197,0.0,0.0,96,0.01,CLR,BKN,0.19,0.0,WeatherDisplay:10.37,2013-09-15 11:44:00,
2013-09-15 06:50:00,53.5,52.4,29.97,SSW,197,0.0,0.0,96,0.01,CLR,BKN,0.19,0.0,WeatherDisplay:10.37,2013-09-15 11:50:00,
2013-09-15 06:55:00,53.3,52.2,29.98,SSW,197,0.0,0.0,96,0.00,CLR,BKN,0.19,0.0,WeatherDisplay:10.37,2013-09-15 11:55:00,
2013-09-15 07:00:00,53.3,52.2,29.98,SSW,197,0.0,0.0,96,0.01,CLR,BKN,0.19,0.0,WeatherDisplay:10.37,2013-09-15 12:00:00,
2013-09-15 07:05:00,53.3,52.2,29.97,SSW,197,0.0,0.0,96,0.00,RA,BKN,0.00,0.0,WeatherDisplay:10.37,2013-09-15 12:05:00,
2013-09-15 07:10:00,53.3,52.2,29.97,SSW,197,0.0,0.0,96,0.00,RA,BKN,0.00,0.0,WeatherDisplay:10.37,2013-09-15 12:10:00,
2013-09-15 07:15:00,53.3,52.2,29.98,SSW,197,0.0,0.0,96,0.00,CLR,BKN,0.00,0.0,WeatherDisplay:10.37,2013-09-15 12:15:00,
2013-09-15 07:20:00,53.3,52.2,29.98,SSW,197,0.0,0.0,96,0.00,CLR,BKN,0.00,0.0,WeatherDisplay:10.37,2013-09-15 12:20:00,
2013-09-15 07:25:00,53.3,52.2,29.98,SSW,197,0.0,0.0,96,0.00,CLR,BKN,0.00,0.0,WeatherDisplay:10.37,2013-09-15 12:25:00,
2013-09-15 07:30:00,53.3,52.2,29.98,SSW,197,0.0,0.0,96,0.00,CLR,BKN,0.00,0.0,WeatherDisplay:10.37,2013-09-15 12:30:00,
2013-09-15 07:35:00,53.3,52.2,29.98,SSW,197,0.0,0.0,96,0.00,CLR,BKN,0.00,0.0,WeatherDisplay:10.37,2013-09-15 12:35:00,
2013-09-15 07:40:00,53.3,52.2,29.98,SSW,197,0.0,0.0,96,0.00,CLR,BKN,0.00,0.0,WeatherDisplay:10.37,2013-09-15 12:40:00,
2013-09-15 07:46:00,53.3,52.2,29.98,SSW,197,0.0,0.0,96,0.00,CLR,BKN,0.00,0.0,WeatherDisplay:10.37,2013-09-15 12:46:00,
2013-09-15 07:51:00,53.3,52.2,29.98,SSW,197,0.0,0.0,96,0.00,CLR,BKN,0.00,0.0,WeatherDisplay:10.37,2013-09-15 12:51:00,
2013-09-15 07:56:00,53.3,52.2,29.98,SSW,197,0.0,0.0,96,0.00,CLR,BKN,0.00,0.0,WeatherDisplay:10.37,2013-09-15 12:56:00,
2013-09-15 08:01:00,53.3,52.2,29.99,SSW,197,0.0,0.0,96,0.00,OVC,BKN,0.00,0.0,WeatherDisplay:10.37,2013-09-15 13:01:00,
2013-09-15 08:06:00,53.3,52.2,29.99,SSW,197,0.0,0.0,96,0.00,OVC,BKN,0.00,0.0,WeatherDisplay:10.37,2013-09-15 13:06:00,
2013-09-15 08:11:00,53.3,52.2,29.99,SSW,197,1.2,1.2,96,0.00,OVC,BKN,0.00,0.0,WeatherDisplay:10.37,2013-09-15 13:11:00,
2013-09-15 08:16:00,53.5,52.4,29.99,SSW,197,2.0,2.0,96,0.00,OVC,BKN,0.00,0.0,WeatherDisplay:10.37,2013-09-15 13:16:00,
2013-09-15 08:21:00,53.5,52.4,29.99,SSW,197,0.0,0.0,96,0.00,OVC,BKN,0.00,0.0,WeatherDisplay:10.37,2013-09-15 13:21:00,
2013-09-15 08:27:00,53.6,52.5,29.99,SSW,197,2.0,2.0,96,0.00,OVC,BKN,0.00,0.0,WeatherDisplay:10.37,2013-09-15 13:27:00,
2013-09-15 08:32:00,53.6,52.5,30.00,SSW,197,3.5,3.5,96,0.00,OVC,BKN,0.00,0.0,WeatherDisplay:10.37,2013-09-15 13:32:00,
2013-09-15 08:37:00,53.8,53.0,30.00,SSW,197,2.3,2.3,97,0.00,OVC,BKN,0.00,0.0,WeatherDisplay:10.37,2013-09-15 13:37:00,
2013-09-15 08:42:00,53.9,53.1,30.00,SSW,197,3.5,3.5,97,0.00,OVC,BKN,0.00,0.0,WeatherDisplay:10.37,2013-09-15 13:42:00,
2013-09-15 08:47:00,53.9,53.1,30.00,North,6,5.8,5.8,97,0.00,OVC,BKN,0.00,0.0,WeatherDisplay:10.37,2013-09-15 13:47:00,
2013-09-15 08:52:00,54.1,53.3,30.00,North,6,4.6,4.6,97,0.00,OVC,BKN,0.00,0.0,WeatherDisplay:10.37,2013-09-15 13:52:00,
2013-09-15 08:57:00,54.1,53.3,30.00,North,6,3.5,3.5,97,0.00,OVC,BKN,0.00,0.0,WeatherDisplay:10.37,2013-09-15 13:57:00,
2013-09-15 09:03:00,54.2,53.4,30.01,North,6,5.0,5.0,97,0.00,OVC,BKN,0.00,0.0,WeatherDisplay:10.37,2013-09-15 14:03:00,
2013-09-15 09:08:00,54.2,53.4,30.01,North,7,5.0,5.0,97,0.00,OVC,BKN,0.00,0.0,WeatherDisplay:10.37,2013-09-15 14:08:00,
2013-09-15 09:13:00,54.4,53.6,30.01,NNE,13,6.9,6.9,97,0.00,OVC,BKN,0.00,0.0,WeatherDisplay:10.37,2013-09-15 14:13:00,
2013-09-15 09:18:00,54.4,53.6,30.01,NNE,15,7.0,7.0,97,0.00,OVC,BKN,0.00,0.0,WeatherDisplay:10.37,2013-09-15 14:18:00,
2013-09-15 09:23:00,54.4,53.6,30.01,NNE,12,5.8,5.8,97,0.00,OVC,BKN,0.00,0.0,WeatherDisplay:10.37,2013-09-15 14:23:00,
2013-09-15 09:28:00,54.4,53.6,30.02,NNE,21,4.0,4.0,97,0.00,OVC,BKN,0.00,0.0,WeatherDisplay:10.37,2013-09-15 14:28:00,
2013-09-15 09:33:00,54.4,53.6,30.02,NNE,15,8.1,8.1,97,0.00,OVC,BKN,0.00,0.0,WeatherDisplay:10.37,2013-09-15 14:33:00,
2013-09-15 09:38:00,54.4,53.6,30.02,NNE,13,6.9,6.9,97,0.00,OVC,BKN,0.00,0.0,WeatherDisplay:10.37,2013-09-15 14:38:00,
2013-09-15 09:44:00,54.5,53.7,30.02,North,7,6.9,6.9,97,0.00,OVC,BKN,0.00,0.0,WeatherDisplay:10.37,2013-09-15 14:44:00,
2013-09-15 09:49:00,54.5,53.7,30.02,NNW,346,9.2,9.2,97,0.00,OVC,BKN,0.00,0.0,WeatherDisplay:10.37,2013-09-15 14:49:00,
2013-09-15 09:54:00,54.7,53.6,30.02,North,7,8.1,8.1,96,0.00,OVC,BKN,0.00,0.0,WeatherDisplay:10.37,2013-09-15 14:54:00,
2013-09-15 09:59:00,54.7,54.1,30.03,NNE,12,9.2,9.2,98,0.00,OVC,BKN,0.00,0.0,WeatherDisplay:10.37,2013-09-15 14:59:00,
2013-09-15 10:04:00,54.7,54.1,30.03,NNE,18,10.4,10.4,98,0.00,OVC,BKN,0.00,0.0,WeatherDisplay:10.37,2013-09-15 15:04:00,
2013-09-15 10:09:00,54.7,54.1,30.03,NE,44,5.8,5.8,98,0.00,OVC,BKN,0.00,0.0,WeatherDisplay:10.37,2013-09-15 15:09:00,
2013-09-15 10:14:00,54.7,54.1,30.03,NNW,340,13.8,13.8,98,0.00,OVC,BKN,0.00,0.0,WeatherDisplay:10.37,2013-09-15 15:14:00,
2013-09-15 10:20:00,54.7,54.1,30.04,NE,50,16.1,16.1,98,0.00,OVC,BKN,0.00,0.0,WeatherDisplay:10.37,2013-09-15 15:20:00,
2013-09-15 10:25:00,54.7,53.9,30.04,NNE,28,3.0,13.0,97,0.00,OVC,BKN,0.00,0.0,WeatherDisplay:10.37,2013-09-15 15:25:00,
2013-09-15 10:30:00,54.7,54.1,30.04,NE,42,15.0,15.0,98,0.00,OVC,BKN,0.00,0.0,WeatherDisplay:10.37,2013-09-15 15:30:00,
2013-09-15 10:35:00,54.7,53.9,30.05,North,5,9.2,9.2,97,0.00,OVC,BKN,0.00,0.0,WeatherDisplay:10.37,2013-09-15 15:35:00,
2013-09-15 10:40:00,54.7,53.9,30.05,North,355,18.4,18.4,97,0.00,OVC,BKN,0.00,0.0,WeatherDisplay:10.37,2013-09-15 15:40:00,
2013-09-15 10:45:00,54.4,53.3,30.06,NE,44,18.4,18.4,96,0.00,OVC,BKN,0.00,0.0,WeatherDisplay:10.37,2013-09-15 15:45:00,
2013-09-15 10:50:00,54.1,53.0,30.06,NNE,16,11.5,11.5,96,0.01,RA,BKN,0.01,0.0,WeatherDisplay:10.37,2013-09-15 15:50:00,
2013-09-15 10:55:00,53.9,52.8,30.06,NE,49,17.3,17.3,96,0.01,RA,BKN,0.01,0.0,WeatherDisplay:10.37,2013-09-15 15:55:00,
2013-09-15 11:00:00,53.5,52.1,30.07,ENE,57,16.1,16.1,95,0.01,OVC,BKN,0.01,0.0,WeatherDisplay:10.37,2013-09-15 16:00:00,
2013-09-15 11:05:00,53.5,52.1,30.07,NE,41,17.3,17.3,95,0.01,OVC,BKN,0.01,0.0,WeatherDisplay:10.37,2013-09-15 16:05:00,
2013-09-15 11:11:00,53.5,52.1,30.07,North,2,19.6,19.6,95,0.01,OVC,BKN,0.01,0.0,WeatherDisplay:10.37,2013-09-15 16:11:00,
2013-09-15 11:16:00,53.2,51.8,30.07,NNE,24,13.8,13.8,95,0.01,OVC,BKN,0.01,0.0,WeatherDisplay:10.37,2013-09-15 16:16:00,
2013-09-15 11:21:00,52.9,51.2,30.08,NE,38,21.0,21.0,94,0.01,OVC,BKN,0.01,0.0,WeatherDisplay:10.37,2013-09-15 16:21:00,
2013-09-15 11:26:00,52.6,50.9,30.08,NNE,12,18.4,18.4,94,0.01,OVC,BKN,0.01,0.0,WeatherDisplay:10.37,2013-09-15 16:26:00,
2013-09-15 11:32:00,52.5,51.1,30.08,NE,37,16.1,16.1,95,0.01,OVC,BKN,0.01,0.0,WeatherDisplay:10.37,2013-09-15 16:32:00,
2013-09-15 11:37:00,52.6,51.2,30.08,North,7,16.1,16.1,95,0.01,OVC,BKN,0.01,0.0,WeatherDisplay:10.37,2013-09-15 16:37:00,
2013-09-15 11:42:00,52.5,51.1,30.09,ENE,64,20.7,20.7,95,0.01,OVC,BKN,0.01,0.0,WeatherDisplay:10.37,2013-09-15 16:42:00,
2013-09-15 11:47:00,52.8,51.4,30.09,ENE,58,12.0,12.0,95,0.01,OVC,BKN,0.01,0.0,WeatherDisplay:10.37,2013-09-15 16:47:00,
2013-09-15 11:52:00,52.6,50.9,30.09,NNE,15,14.0,14.0,94,0.00,OVC,BKN,0.01,0.0,WeatherDisplay:10.37,2013-09-15 16:52:00,
2013-09-15 11:57:00,52.3,50.6,30.09,NE,37,15.0,15.0,94,0.00,OVC,BKN,0.01,0.0,WeatherDisplay:10.37,2013-09-15 16:57:00,
2013-09-15 12:02:00,52.3,50.6,30.10,NNE,13,21.9,21.9,94,0.00,OVC,BKN,0.01,0.0,WeatherDisplay:10.37,2013-09-15 17:02:00,
2013-09-15 12:08:00,52.5,50.8,30.10,NE,38,15.0,15.0,94,0.00,OVC,BKN,0.01,0.0,WeatherDisplay:10.37,2013-09-15 17:08:00,
2013-09-15 12:13:00,52.2,50.5,30.10,NE,55,18.4,18.4,94,0.00,OVC,BKN,0.01,0.0,WeatherDisplay:10.37,2013-09-15 17:13:00,
2013-09-15 12:18:00,52.0,50.3,30.10,NNE,15,8.1,8.1,94,0.00,OVC,BKN,0.01,0.0,WeatherDisplay:10.37,2013-09-15 17:18:00,
2013-09-15 12:23:00,52.0,50.0,30.10,East,79,19.6,19.6,93,0.00,OVC,BKN,0.01,0.0,WeatherDisplay:10.37,2013-09-15 17:23:00,
2013-09-15 12:28:00,52.3,50.3,30.11,NNE,32,20.7,20.7,93,0.00,OVC,BKN,0.01,0.0,WeatherDisplay:10.37,2013-09-15 17:28:00,
2013-09-15 12:33:00,52.3,50.0,30.11,NNE,32,11.5,11.5,92,0.00,OVC,BKN,0.01,0.0,WeatherDisplay:10.37,2013-09-15 17:33:00,
2013-09-15 12:38:00,52.8,50.8,30.11,NE,49,8.1,8.1,93,0.00,OVC,BKN,0.01,0.0,WeatherDisplay:10.37,2013-09-15 17:38:00,
2013-09-15 12:43:00,52.9,50.6,30.11,ENE,69,19.6,19.6,92,0.00,OVC,BKN,0.01,0.0,WeatherDisplay:10.37,2013-09-15 17:43:00,
2013-09-15 12:49:00,52.2,49.7,30.12,NNE,23,25.3,25.3,91,0.00,OVC,BKN,0.01,0.0,WeatherDisplay:10.37,2013-09-15 17:49:00,
2013-09-15 12:54:00,51.7,49.5,30.12,NNE,32,19.6,19.6,92,0.00,OVC,BKN,0.01,0.0,WeatherDisplay:10.37,2013-09-15 17:54:00,
2013-09-15 12:59:00,51.7,49.5,30.12,NNE,23,15.0,15.0,92,0.00,OVC,BKN,0.01,0.0,WeatherDisplay:10.37,2013-09-15 17:59:00,
2013-09-15 13:04:00,52.5,50.2,30.12,ENE,64,16.1,16.1,92,0.00,OVC,BKN,0.01,0.0,WeatherDisplay:10.37,2013-09-15 18:04:00,
2013-09-15 13:09:00,52.6,49.8,30.13,East,85,12.7,12.7,90,0.00,OVC,BKN,0.01,0.0,WeatherDisplay:10.37,2013-09-15 18:09:00,
2013-09-15 13:14:00,52.5,49.7,30.13,NE,51,13.8,13.8,90,0.00,OVC,BKN,0.01,0.0,WeatherDisplay:10.37,2013-09-15 18:14:00,
2013-09-15 13:19:00,52.5,49.4,30.13,ENE,73,16.1,16.1,89,0.00,OVC,BKN,0.01,0.0,WeatherDisplay:10.37,2013-09-15 18:19:00,
2013-09-15 13:25:00,52.5,49.4,30.14,NE,38,13.0,22.0,89,0.00,OVC,BKN,0.01,0.0,WeatherDisplay:10.37,2013-09-15 18:25:00,
2013-09-15 13:30:00,52.0,48.6,30.14,NNE,24,14.0,26.0,88,0.00,OVC,BKN,0.01,0.0,WeatherDisplay:10.37,2013-09-15 18:30:00,
2013-09-15 13:35:00,51.7,48.3,30.14,NNE,33,12.7,12.7,88,0.00,OVC,BKN,0.01,0.0,WeatherDisplay:10.37,2013-09-15 18:35:00,
2013-09-15 13:40:00,51.9,48.5,30.14,NE,38,17.3,17.3,88,0.00,OVC,BKN,0.01,0.0,WeatherDisplay:10.37,2013-09-15 18:40:00,
2013-09-15 13:45:00,51.7,48.0,30.14,NE,38,15.0,15.0,87,0.00,OVC,BKN,0.01,0.0,WeatherDisplay:10.37,2013-09-15 18:45:00,
2013-09-15 13:50:00,51.7,48.3,30.15,NE,49,18.4,18.4,88,0.00,OVC,BKN,0.01,0.0,WeatherDisplay:10.37,2013-09-15 18:50:00,
2013-09-15 13:55:00,51.9,48.8,30.15,NE,40,15.0,15.0,89,0.00,OVC,BKN,0.01,0.0,WeatherDisplay:10.37,2013-09-15 18:55:00,
2013-09-15 14:00:00,51.9,49.1,30.15,NE,56,17.3,17.3,90,0.00,OVC,BKN,0.01,0.0,WeatherDisplay:10.37,2013-09-15 19:00:00,
2013-09-15 14:06:00,51.4,48.0,30.15,NE,38,19.6,19.6,88,0.00,OVC,BKN,0.01,0.0,WeatherDisplay:10.37,2013-09-15 19:06:00,
2013-09-15 14:11:00,51.1,47.7,30.15,ENE,71,16.1,16.1,88,0.00,OVC,BKN,0.01,0.0,WeatherDisplay:10.37,2013-09-15 19:11:00,
2013-09-15 14:16:00,51.3,47.9,30.15,NE,36,13.8,13.8,88,0.00,OVC,BKN,0.01,0.0,WeatherDisplay:10.37,2013-09-15 19:16:00,
2013-09-15 14:19:00,51.4,47.7,30.15,North,356,21.0,21.0,87,0.00,OVC,BKN,0.01,0.0,WeatherDisplay:10.37,2013-09-15 19:19:00,
2013-09-15 14:24:00,51.6,47.5,30.16,NNE,25,11.0,11.0,86,0.00,OVC,BKN,0.01,0.0,WeatherDisplay:10.37,2013-09-15 19:24:00,
2013-09-15 14:29:00,51.6,48.2,30.16,NNW,332,21.9,21.9,88,0.00,OVC,BKN,0.01,0.0,WeatherDisplay:10.37,2013-09-15 19:29:00,
2013-09-15 14:35:00,51.0,47.6,30.16,NNE,28,8.0,18.0,88,0.00,OVC,BKN,0.01,0.0,WeatherDisplay:10.37,2013-09-15 19:35:00,
2013-09-15 14:40:00,50.5,47.4,30.16,NNE,18,13.0,22.0,89,0.00,OVC,BKN,0.01,0.0,WeatherDisplay:10.37,2013-09-15 19:40:00,
2013-09-15 14:45:00,50.1,47.0,30.17,NNE,21,15.0,15.0,89,0.00,OVC,BKN,0.01,0.0,WeatherDisplay:10.37,2013-09-15 19:45:00,
2013-09-15 14:50:00,50.1,47.3,30.17,NE,36,16.0,16.0,90,0.00,OVC,BKN,0.01,0.0,WeatherDisplay:10.37,2013-09-15 19:50:00,
2013-09-15 14:55:00,50.1,47.0,30.17,NNW,344,12.7,12.7,89,0.00,OVC,BKN,0.01,0.0,WeatherDisplay:10.37,2013-09-15 19:55:00,
2013-09-15 15:00:00,49.9,46.8,30.17,NE,48,10.4,10.4,89,0.00,OVC,BKN,0.01,0.0,WeatherDisplay:10.37,2013-09-15 20:00:00,
2013-09-15 15:05:00,49.9,46.5,30.18,NE,46,17.3,17.3,88,0.00,OVC,BKN,0.01,0.0,WeatherDisplay:10.37,2013-09-15 20:05:00,
2013-09-15 15:10:00,50.1,46.7,30.18,NNE,33,16.1,16.1,88,0.00,OVC,BKN,0.01,0.0,WeatherDisplay:10.37,2013-09-15 20:10:00,
2013-09-15 15:16:00,50.2,46.8,30.18,NNE,24,13.8,13.8,88,0.00,OVC,BKN,0.01,0.0,WeatherDisplay:10.37,2013-09-15 20:16:00,
2013-09-15 15:21:00,50.5,46.8,30.18,ENE,57,11.5,11.5,87,0.00,OVC,BKN,0.01,0.0,WeatherDisplay:10.37,2013-09-15 20:21:00,
2013-09-15 15:26:00,51.0,47.0,30.18,NW,321,14.0,14.0,86,0.00,OVC,BKN,0.01,0.0,WeatherDisplay:10.37,2013-09-15 20:26:00,
2013-09-15 15:31:00,50.8,46.1,30.18,NE,50,13.8,13.8,84,0.00,OVC,BKN,0.01,0.0,WeatherDisplay:10.37,2013-09-15 20:31:00,
2013-09-15 15:36:00,50.7,46.7,30.19,NNE,25,11.5,11.5,86,0.00,OVC,BKN,0.01,0.0,WeatherDisplay:10.37,2013-09-15 20:36:00,
2013-09-15 15:41:00,50.7,46.7,30.19,NE,43,12.0,12.0,86,0.00,OVC,BKN,0.01,0.0,WeatherDisplay:10.37,2013-09-15 20:41:00,
2013-09-15 15:46:00,50.5,46.8,30.19,NE,38,12.7,12.7,87,0.00,OVC,BKN,0.01,0.0,WeatherDisplay:10.37,2013-09-15 20:46:00,
2013-09-15 15:52:00,50.2,47.1,30.19,ENE,71,8.1,8.1,89,0.00,OVC,BKN,0.01,0.0,WeatherDisplay:10.37,2013-09-15 20:52:00,
2013-09-15 15:57:00,50.1,47.9,30.19,NE,36,8.1,8.1,92,0.00,OVC,BKN,0.01,0.0,WeatherDisplay:10.37,2013-09-15 20:57:00,
2013-09-15 16:02:00,50.2,48.0,30.19,NE,38,8.1,8.1,92,0.00,OVC,BKN,0.01,0.0,WeatherDisplay:10.37,2013-09-15 21:02:00,
2013-09-15 16:07:00,50.4,48.5,30.20,NNE,21,13.0,13.0,93,0.00,OVC,BKN,0.01,0.0,WeatherDisplay:10.37,2013-09-15 21:07:00,
2013-09-15 16:12:00,49.9,47.4,30.20,NE,35,16.0,16.0,91,0.00,OVC,BKN,0.01,0.0,WeatherDisplay:10.37,2013-09-15 21:12:00,
2013-09-15 16:17:00,49.6,46.8,30.21,NNE,20,18.4,18.4,90,0.00,OVC,BKN,0.01,0.0,WeatherDisplay:10.37,2013-09-15 21:17:00,
2013-09-15 16:22:00,49.5,46.4,30.21,NNE,30,10.0,10.0,89,0.00,OVC,BKN,0.01,0.0,WeatherDisplay:10.37,2013-09-15 21:22:00,
2013-09-15 16:27:00,49.4,46.3,30.21,NE,44,11.5,11.5,89,0.00,OVC,BKN,0.01,0.0,WeatherDisplay:10.37,2013-09-15 21:27:00,
2013-09-15 16:33:00,49.5,46.4,30.21,NNE,21,15.0,15.0,89,0.00,OVC,BKN,0.01,0.0,WeatherDisplay:10.37,2013-09-15 21:33:00,
2013-09-15 16:38:00,49.5,46.4,30.22,NE,42,10.4,10.4,89,0.00,OVC,BKN,0.01,0.0,WeatherDisplay:10.37,2013-09-15 21:38:00,
2013-09-15 16:43:00,49.4,47.2,30.22,North,11,13.8,13.8,92,0.00,OVC,BKN,0.01,0.0,WeatherDisplay:10.37,2013-09-15 21:43:00,
2013-09-15 16:48:00,49.4,46.6,30.22,NNE,21,10.4,10.4,90,0.00,OVC,BKN,0.01,0.0,WeatherDisplay:10.37,2013-09-15 21:48:00,
2013-09-15 16:53:00,49.2,46.4,30.23,North,349,11.5,11.5,90,0.00,OVC,BKN,0.01,0.0,WeatherDisplay:10.37,2013-09-15 21:53:00,
2013-09-15 16:58:00,49.1,46.6,30.23,NE,36,11.5,11.5,91,0.00,OVC,BKN,0.01,0.0,WeatherDisplay:10.37,2013-09-15 21:58:00,
2013-09-15 17:03:00,49.1,46.6,30.23,NNE,26,11.5,11.5,91,0.00,OVC,BKN,0.01,0.0,WeatherDisplay:10.37,2013-09-15 22:03:00,
2013-09-15 17:09:00,48.9,46.4,30.24,North,9,10.4,10.4,91,0.00,OVC,BKN,0.01,0.0,WeatherDisplay:10.37,2013-09-15 22:09:00,
2013-09-15 17:14:00,48.9,46.4,30.24,NNE,22,11.5,11.5,91,0.00,OVC,BKN,0.01,0.0,WeatherDisplay:10.37,2013-09-15 22:14:00,
2013-09-15 17:19:00,48.8,46.3,30.24,NNW,343,8.1,8.1,91,0.00,OVC,BKN,0.01,0.0,WeatherDisplay:10.37,2013-09-15 22:19:00,
2013-09-15 17:24:00,48.8,46.3,30.24,NNE,30,8.1,8.1,91,0.00,OVC,BKN,0.01,0.0,WeatherDisplay:10.37,2013-09-15 22:24:00,
2013-09-15 17:29:00,48.8,46.3,30.24,NNE,25,8.1,8.1,91,0.00,OVC,BKN,0.01,0.0,WeatherDisplay:10.37,2013-09-15 22:29:00,
2013-09-15 17:34:00,48.8,46.3,30.24,NE,36,7.0,7.0,91,0.00,OVC,BKN,0.01,0.0,WeatherDisplay:10.37,2013-09-15 22:34:00,
2013-09-15 17:39:00,48.6,46.1,30.24,NNE,15,9.0,9.0,91,0.00,OVC,BKN,0.01,0.0,WeatherDisplay:10.37,2013-09-15 22:39:00,
2013-09-15 17:44:00,48.6,46.1,30.25,NE,44,10.4,10.4,91,0.00,OVC,BKN,0.01,0.0,WeatherDisplay:10.37,2013-09-15 22:44:00,
2013-09-15 17:50:00,48.5,45.7,30.25,NNE,20,5.0,9.0,90,0.00,OVC,BKN,0.01,0.0,WeatherDisplay:10.37,2013-09-15 22:50:00,
2013-09-15 17:55:00,48.5,45.4,30.25,North,351,13.8,13.8,89,0.00,OVC,BKN,0.01,0.0,WeatherDisplay:10.37,2013-09-15 22:55:00,
2013-09-15 18:00:00,48.3,44.9,30.26,NNE,22,9.2,9.2,88,0.00,CLR,BKN,0.01,0.0,WeatherDisplay:10.37,2013-09-15 23:00:00,
2013-09-15 18:05:00,48.2,44.5,30.26,ENE,64,9.2,9.2,87,0.00,CLR,BKN,0.01,0.0,WeatherDisplay:10.37,2013-09-15 23:05:00,
2013-09-15 18:10:00,48.2,44.2,30.26,NE,49,10.4,10.4,86,0.00,CLR,BKN,0.01,0.0,WeatherDisplay:10.37,2013-09-15 23:10:00,
2013-09-15 18:15:00,48.0,43.7,30.26,NE,50,11.5,11.5,85,0.00,CLR,BKN,0.01,0.0,WeatherDisplay:10.37,2013-09-15 23:15:00,
2013-09-15 18:20:00,48.0,43.7,30.26,NE,36,8.1,8.1,85,0.00,CLR,BKN,0.01,0.0,WeatherDisplay:10.37,2013-09-15 23:20:00,
2013-09-15 18:26:00,48.0,43.7,30.26,NNE,16,6.9,6.9,85,0.00,CLR,BKN,0.01,0.0,WeatherDisplay:10.37,2013-09-15 23:26:00,
2013-09-15 18:31:00,48.0,43.7,30.26,NE,52,4.6,4.6,85,0.00,CLR,BKN,0.01,0.0,WeatherDisplay:10.37,2013-09-15 23:31:00,
2013-09-15 18:36:00,47.9,43.3,30.26,NE,34,9.2,9.2,84,0.00,CLR,BKN,0.01,0.0,WeatherDisplay:10.37,2013-09-15 23:36:00,
2013-09-15 18:41:00,47.7,42.8,30.26,NE,38,4.6,4.6,83,0.00,CLR,BKN,0.01,0.0,WeatherDisplay:10.37,2013-09-15 23:41:00,
2013-09-15 18:46:00,47.7,42.8,30.26,NNE,31,5.0,5.0,83,0.00,CLR,BKN,0.01,0.0,WeatherDisplay:10.37,2013-09-15 23:46:00,
2013-09-15 18:51:00,47.6,43.0,30.26,NE,37,3.5,3.5,84,0.00,CLR,BKN,0.01,0.0,WeatherDisplay:10.37,2013-09-15 23:51:00,
2013-09-15 18:56:00,47.6,43.0,30.26,NE,36,3.5,3.5,84,0.00,CLR,BKN,0.01,0.0,WeatherDisplay:10.37,2013-09-15 23:56:00,
2013-09-15 19:01:00,47.6,43.3,30.26,NE,36,4.0,4.0,85,0.00,CLR,BKN,0.01,0.0,WeatherDisplay:10.37,2013-09-16 00:01:00,
2013-09-15 19:07:00,47.4,43.1,30.26,NE,36,4.0,4.0,85,0.00,CLR,BKN,0.01,0.0,WeatherDisplay:10.37,2013-09-16 00:07:00,
2013-09-15 19:12:00,47.3,43.0,30.26,NE,36,4.0,4.0,85,0.00,CLR,BKN,0.01,0.0,WeatherDisplay:10.37,2013-09-16 00:12:00,
2013-09-15 19:17:00,47.3,43.0,30.27,NE,36,5.0,5.0,85,0.00,CLR,BKN,0.01,0.0,WeatherDisplay:10.37,2013-09-16 00:17:00,
2013-09-15 19:22:00,47.0,42.7,30.27,NNE,29,4.6,4.6,85,0.00,CLR,BKN,0.01,0.0,WeatherDisplay:10.37,2013-09-16 00:22:00,
2013-09-15 19:27:00,46.8,42.5,30.27,NNE,29,4.6,4.6,85,0.00,CLR,BKN,0.01,0.0,WeatherDisplay:10.37,2013-09-16 00:27:00,
2013-09-15 19:32:00,46.7,42.7,30.27,NNE,33,4.0,4.0,86,0.00,CLR,BKN,0.01,0.0,WeatherDisplay:10.37,2013-09-16 00:32:00,
2013-09-15 19:37:00,46.5,42.5,30.27,NNE,33,4.0,4.0,86,0.00,CLR,BKN,0.01,0.0,WeatherDisplay:10.37,2013-09-16 00:37:00,
2013-09-15 19:43:00,46.2,42.2,30.27,NNE,33,3.5,3.5,86,0.00,CLR,BKN,0.01,0.0,WeatherDisplay:10.37,2013-09-16 00:43:00,
2013-09-15 19:48:00,46.1,42.1,30.27,NNE,33,3.5,3.5,86,0.00,CLR,BKN,0.01,0.0,WeatherDisplay:10.37,2013-09-16 00:48:00,
2013-09-15 19:53:00,45.8,41.9,30.27,NNE,33,4.0,4.0,86,0.00,CLR,BKN,0.01,0.0,WeatherDisplay:10.37,2013-09-16 00:53:00,
2013-09-15 19:58:00,45.7,41.8,30.27,NNE,33,4.6,4.6,86,0.00,CLR,BKN,0.01,0.0,WeatherDisplay:10.37,2013-09-16 00:58:00,
2013-09-15 20:03:00,45.4,41.5,30.28,NE,35,4.6,4.6,86,0.00,CLR,BKN,0.01,0.0,WeatherDisplay:10.37,2013-09-16 01:03:00,
2013-09-15 20:08:00,45.1,41.2,30.28,NE,35,4.6,4.6,86,0.00,CLR,BKN,0.01,0.0,WeatherDisplay:10.37,2013-09-16 01:08:00,
2013-09-15 20:13:00,44.9,41.3,30.28,NE,35,4.0,4.0,87,0.00,CLR,BKN,0.01,0.0,WeatherDisplay:10.37,2013-09-16 01:13:00,
2013-09-15 20:18:00,44.6,41.0,30.28,NE,35,4.0,4.0,87,0.00,CLR,BKN,0.01,0.0,WeatherDisplay:10.37,2013-09-16 01:18:00,
2013-09-15 20:24:00,44.3,40.7,30.28,NE,35,4.0,4.0,87,0.00,CLR,BKN,0.01,0.0,WeatherDisplay:10.37,2013-09-16 01:24:00,
2013-09-15 20:29:00,44.2,40.6,30.28,NE,35,4.0,4.0,87,0.00,CLR,BKN,0.01,0.0,WeatherDisplay:10.37,2013-09-16 01:29:00,
2013-09-15 20:34:00,43.9,40.3,30.28,NE,35,4.0,4.0,87,0.00,CLR,BKN,0.01,0.0,WeatherDisplay:10.37,2013-09-16 01:34:00,
2013-09-15 20:39:00,43.8,40.5,30.28,NE,35,4.0,4.0,88,0.00,CLR,BKN,0.01,0.0,WeatherDisplay:10.37,2013-09-16 01:39:00,
2013-09-15 20:44:00,43.6,40.3,30.28,NE,35,4.0,4.0,88,0.00,CLR,BKN,0.01,0.0,WeatherDisplay:10.37,2013-09-16 01:44:00,
2013-09-15 20:49:00,43.5,40.5,30.28,NE,35,4.6,4.6,89,0.00,CLR,BKN,0.01,0.0,WeatherDisplay:10.37,2013-09-16 01:49:00,
2013-09-15 20:54:00,43.3,40.3,30.28,NE,35,4.6,4.6,89,0.00,CLR,BKN,0.01,0.0,WeatherDisplay:10.37,2013-09-16 01:54:00,
2013-09-15 21:00:00,43.1,40.1,30.28,NE,35,2.0,4.0,89,0.00,CLR,BKN,0.01,0.0,WeatherDisplay:10.37,2013-09-16 02:00:00,
2013-09-15 21:05:00,42.9,39.9,30.29,NE,35,2.0,4.0,89,0.00,CLR,BKN,0.01,0.0,WeatherDisplay:10.37,2013-09-16 02:05:00,
2013-09-15 21:10:00,42.8,39.8,30.29,NE,35,3.5,3.5,89,0.00,CLR,BKN,0.01,0.0,WeatherDisplay:10.37,2013-09-16 02:10:00,
2013-09-15 21:15:00,42.6,39.6,30.29,NE,35,3.5,3.5,89,0.00,CLR,BKN,0.01,0.0,WeatherDisplay:10.37,2013-09-16 02:15:00,
2013-09-15 21:20:00,42.5,39.8,30.29,NE,35,3.5,3.5,90,0.00,CLR,BKN,0.01,0.0,WeatherDisplay:10.37,2013-09-16 02:20:00,
2013-09-15 21:25:00,42.3,39.6,30.29,NE,35,3.5,3.5,90,0.00,CLR,BKN,0.01,0.0,WeatherDisplay:10.37,2013-09-16 02:25:00,
2013-09-15 21:30:00,42.1,39.4,30.30,NE,35,3.5,3.5,90,0.00,CLR,BKN,0.01,0.0,WeatherDisplay:10.37,2013-09-16 02:30:00,
2013-09-15 21:35:00,41.9,39.2,30.30,NE,35,2.3,2.3,90,0.00,CLR,BKN,0.01,0.0,WeatherDisplay:10.37,2013-09-16 02:35:00,
2013-09-15 21:40:00,41.8,39.1,30.30,NE,35,2.3,2.3,90,0.00,CLR,BKN,0.01,0.0,WeatherDisplay:10.37,2013-09-16 02:40:00,
2013-09-15 21:45:00,41.6,38.9,30.30,NE,35,2.3,2.3,90,0.00,CLR,BKN,0.01,0.0,WeatherDisplay:10.37,2013-09-16 02:45:00,
2013-09-15 21:51:00,41.5,38.8,30.30,NE,35,2.3,2.3,90,0.00,CLR,BKN,0.01,0.0,WeatherDisplay:10.37,2013-09-16 02:51:00,
2013-09-15 21:56:00,41.3,38.6,30.30,NE,35,3.5,3.5,90,0.00,CLR,BKN,0.01,0.0,WeatherDisplay:10.37,2013-09-16 02:56:00,
2013-09-15 22:01:00,41.2,38.5,30.30,NE,35,3.5,3.5,90,0.00,CLR,BKN,0.01,0.0,WeatherDisplay:10.37,2013-09-16 03:01:00,
2013-09-15 22:06:00,41.1,38.4,30.30,NE,35,3.5,3.5,90,0.00,CLR,BKN,0.01,0.0,WeatherDisplay:10.37,2013-09-16 03:06:00,
2013-09-15 22:11:00,40.9,38.2,30.30,NE,35,2.3,2.3,90,0.00,CLR,BKN,0.01,0.0,WeatherDisplay:10.37,2013-09-16 03:11:00,
2013-09-15 22:16:00,40.8,38.1,30.30,NE,35,3.0,3.0,90,0.00,CLR,BKN,0.01,0.0,WeatherDisplay:10.37,2013-09-16 03:16:00,
2013-09-15 22:21:00,40.6,37.9,30.30,NE,35,3.5,3.5,90,0.00,CLR,BKN,0.01,0.0,WeatherDisplay:10.37,2013-09-16 03:21:00,
2013-09-15 22:27:00,40.5,37.8,30.30,NE,35,3.5,3.5,90,0.00,CLR,BKN,0.01,0.0,WeatherDisplay:10.37,2013-09-16 03:27:00,
2013-09-15 22:32:00,40.5,38.1,30.30,NE,35,4.0,4.0,91,0.00,CLR,BKN,0.01,0.0,WeatherDisplay:10.37,2013-09-16 03:32:00,
2013-09-15 22:37:00,40.3,37.9,30.30,NE,35,4.0,4.0,91,0.00,CLR,BKN,0.01,0.0,WeatherDisplay:10.37,2013-09-16 03:37:00,
2013-09-15 22:42:00,40.2,37.8,30.31,NE,35,4.0,4.0,91,0.00,CLR,BKN,0.01,0.0,WeatherDisplay:10.37,2013-09-16 03:42:00,
2013-09-15 22:47:00,40.1,37.7,30.31,NE,35,4.0,4.0,91,0.00,CLR,BKN,0.01,0.0,WeatherDisplay:10.37,2013-09-16 03:47:00,
2013-09-15 22:52:00,40.1,38.0,30.31,NE,35,4.0,4.0,92,0.00,CLR,BKN,0.01,0.0,WeatherDisplay:10.37,2013-09-16 03:52:00,
2013-09-15 22:57:00,39.9,37.8,30.31,NE,35,4.0,4.0,92,0.00,CLR,BKN,0.01,0.0,WeatherDisplay:10.37,2013-09-16 03:57:00,
2013-09-15 23:01:00,39.9,37.8,30.31,NE,35,4.0,4.0,92,0.00,CLR,BKN,0.01,0.0,WeatherDisplay:10.37,2013-09-16 04:01:00,
2013-09-15 23:03:00,39.8,37.7,30.31,NE,35,4.0,4.0,92,0.00,CLR,BKN,0.01,0.0,WeatherDisplay:10.37,2013-09-16 04:03:00,
2013-09-15 23:04:00,39.8,37.7,30.31,NE,35,4.0,4.0,92,0.00,CLR,BKN,0.01,0.0,WeatherDisplay:10.37,2013-09-16 04:04:00,
2013-09-15 23:09:00,39.6,37.5,30.31,NE,35,3.5,3.5,92,0.00,CLR,BKN,0.01,0.0,WeatherDisplay:10.37,2013-09-16 04:09:00,
2013-09-15 23:14:00,39.5,37.4,30.32,NE,34,4.6,4.6,92,0.00,CLR,BKN,0.01,0.0,WeatherDisplay:10.37,2013-09-16 04:14:00,
2013-09-15 23:19:00,39.3,37.2,30.32,NE,34,4.6,4.6,92,0.00,CLR,BKN,0.01,0.0,WeatherDisplay:10.37,2013-09-16 04:19:00,
2013-09-15 23:24:00,39.3,37.2,30.32,NNE,32,5.8,5.8,92,0.00,CLR,BKN,0.01,0.0,WeatherDisplay:10.37,2013-09-16 04:24:00,
2013-09-15 23:30:00,39.2,37.1,30.32,NNE,31,5.0,5.0,92,0.00,CLR,BKN,0.01,0.0,WeatherDisplay:10.37,2013-09-16 04:30:00,
2013-09-15 23:35:00,39.1,37.0,30.32,NNE,31,5.0,5.0,92,0.00,CLR,BKN,0.01,0.0,WeatherDisplay:10.37,2013-09-16 04:35:00,
2013-09-15 23:40:00,38.9,36.8,30.32,NNE,31,4.0,4.0,92,0.00,CLR,BKN,0.01,0.0,WeatherDisplay:10.37,2013-09-16 04:40:00,
2013-09-15 23:45:00,38.9,36.8,30.32,NNE,31,4.6,4.6,92,0.00,CLR,BKN,0.01,0.0,WeatherDisplay:10.37,2013-09-16 04:45:00,
2013-09-15 23:50:00,38.8,36.7,30.32,NNE,33,4.6,4.6,92,0.00,CLR,BKN,0.01,0.0,WeatherDisplay:10.37,2013-09-16 04:50:00,
2013-09-15 23:55:00,38.6,36.5,30.32,NE,34,4.6,4.6,92,0.00,CLR,BKN,0.01,0.0,WeatherDisplay:10.37,2013-09-16 04:55:00,